User: anonymous   Login
Location: Daybis Observatory
(33.4273°N, 88.8061°W)
Time: 15:04:07
(UTC-06:00)
Language:

Coronas F rocket - Orbit

View from above orbital plane
View from above orbital plane
View from above satellite
View from above satellite

Ground track
Ground track

The orbit data is extracted from the following two-line orbital elements,

1 26874U 01032B   14327.50415804  .00018986  00000-0  26482-3 0  8544
2 26874 082.4695 175.9545 0013025 181.3179 178.8044 15.56647589746049
Epoch (UTC): 23 November 2014 12:05:59
Eccentricity: 0.0013025
inclination: 82.4695°
perigee height: 388 km
apogee height: 406 km
right ascension of ascending node: 175.9545°
argument of perigee: 181.3179°
revolutions per day: 15.56647589
mean anomaly at epoch: 178.8044°
orbit number at epoch: 74604

The dashed part of the orbit path shows where the satellite is in the earth's shadow,  

DLR